This is the latest recevied weather packets stored in our database for station/object WX1NWA. If no packets are shown the sender has not sent any weather packets the latest 10 day(s).
| Time | Temp. | Humidity | Pressure | Rain* | Wind** | Luminosity | Snow |
|---|---|---|---|---|---|---|---|
| 1777222188 | 21.11° C | 79% | 1014.8 hPa | 0 mm | - | 740 W/m² | - |
| 1777221886 | 21.11° C | 80% | 1014.9 hPa | 0 mm | - | 768 W/m² | - |
| 1777221585 | 21.11° C | 80% | 1015 hPa | 0 mm | - | 796 W/m² | - |
| 1777221283 | 21.11° C | 78% | 1015.1 hPa | 0 mm | - | 780 W/m² | - |
| 1777220979 | 20.56° C | 82% | 1015 hPa | 0 mm | - | 811 W/m² | - |
| 1777220675 | 20.56° C | 81% | 1015 hPa | 0 mm | - | 549 W/m² | - |
| 1777220372 | 20° C | 82% | 1015 hPa | 0 mm | - | 784 W/m² | - |
| 1777220071 | 20.56° C | 81% | 1015.1 hPa | 0 mm | - | 743 W/m² | - |
| 1777219768 | 20.56° C | 83% | 1015.1 hPa | 0 mm | - | 753 W/m² | - |
| 1777219465 | 20° C | 82% | 1015.1 hPa | 0 mm | - | 752 W/m² | - |
| 1777219161 | 20° C | 83% | 1015.3 hPa | 0 mm | - | 848 W/m² | - |
| 1777218857 | 20° C | 82% | 1015.2 hPa | 0 mm | - | 806 W/m² | - |
| 1777218554 | 19.44° C | 83% | 1015 hPa | 0 mm | - | 663 W/m² | - |
| 1777218248 | 20° C | 83% | 1015.1 hPa | 0 mm | - | 609 W/m² | - |
| 1777217946 | 19.44° C | 83% | 1015.1 hPa | 0 mm | - | 726 W/m² | - |
| 1777217641 | 18.89° C | 83% | 1014.9 hPa | 0 mm | - | 794 W/m² | - |
| 1777217337 | 18.33° C | 85% | 1015 hPa | 0 mm | - | 393 W/m² | - |
| 1777217033 | 18.89° C | 85% | 1015.2 hPa | 0 mm | - | 391 W/m² | - |
| 1777216731 | 18.89° C | 84% | 1014.9 hPa | 0 mm | - | 357 W/m² | - |
| 1777216431 | 18.89° C | 83% | 1015.1 hPa | 0 mm | - | 425 W/m² | - |
| 1777216130 | 18.33° C | 86% | 1015.2 hPa | 0 mm | - | 615 W/m² | - |
| 1777215825 | 18.33° C | 82% | 1015.2 hPa | 0 mm | - | 370 W/m² | - |
| 1777215521 | 18.33° C | 84% | 1015 hPa | 0 mm | - | 528 W/m² | - |
| 1777215218 | 18.33° C | 83% | 1015 hPa | 0 mm | - | 505 W/m² | - |
| 1777214913 | 18.33° C | 83% | 1014.9 hPa | 0 mm | - | 557 W/m² | - |
* Rain latest hour (hover to see other rain measurements)
** Current wind speed in m/s (hover to see current wind gust speed)